ECMWFFLT2_925_temp_021.txt.gz
Temp
11 11 11 11 10 11 11 11 11 12 11 12 12 13 13 13 13 13 13 13 13 13 13 13 14 14 14 14 14 13 13 13 14 13 13 12 13 13 12 12 12 11 10 10 11 11 11 11 10 9 9 9
10 10 10 10 10 10 10 10 11 11 11 11 11 11 12 12 12 13 13 13 13 13 13 13 13 13 13 13 13 13 13 13 13 13 13 12 12 12 12 12 12 11 10 9 10 11 11 11 11 10 10 9
10 10 10 10 10 9 9 10 10 10 11 11 11 11 11 11 12 12 12 13 13 13 13 13 13 13 13 13 13 13 13 13 13 13 13 12 12 12 12 12 12 11 10 9 10 10 11 11 11 11 10 9
9 9 10 10 10 9 9 9 9 10 10 10 11 11 11 11 11 11 12 12 13 13 13 13 13 13 13 13 13 13 13 13 13 13 13 12 12 12 12 12 12 11 10 10 10 10 10 11 11 11 10 9
8 8 8 9 9 9 9 9 9 9 9 10 10 10 10 11 11 11 11 11 12 12 13 13 13 13 13 13 13 13 13 13 12 13 13 13 12 12 11 12 11 11 10 10 10 10 10 11 11 11 10 10
7 7 7 7 8 8 8 9 9 9 9 9 9 9 9 10 10 10 10 10 11 11 11 12 12 12 13 13 13 13 13 12 12 13 13 12 12 12 11 11 11 11 10 10 10 10 10 10 10 10 10 10
6 6 6 6 7 7 7 8 8 8 9 9 9 9 8 8 9 9 10 10 10 10 10 11 11 12 12 12 12 13 13 12 12 12 13 12 12 12 11 11 11 11 10 9 9 10 10 10 10 10 10 10
6 6 6 6 6 6 6 7 7 7 8 8 9 9 9 8 8 8 9 9 9 10 10 10 10 10 11 12 12 13 13 12 12 12 12 12 12 12 11 11 11 10 10 9 9 10 10 10 10 10 10 9
6 5 6 6 6 6 6 6 6 7 7 7 8 8 8 8 8 8 8 9 9 9 9 9 9 9 10 11 11 12 13 13 13 13 12 12 12 12 11 11 11 10 10 9 8 9 10 10 10 9 9 9
5 5 5 5 5 6 6 6 6 6 6 6 7 7 8 7 7 8 7 8 8 8 8 8 9 9 9 10 10 11 12 13 13 13 12 12 12 12 12 11 11 10 10 10 9 9 10 10 9 9 9 9
5 5 5 5 5 5 5 5 5 5 6 6 6 7 7 7 6 6 6 7 7 8 8 8 8 8 9 9 9 10 11 12 13 13 12 12 12 12 12 11 11 10 10 10 9 9 9 9 9 9 9 9
5 5 5 5 5 5 5 5 5 5 5 5 6 6 6 7 6 6 5 6 6 7 7 7 7 7 8 8 9 9 9 10 11 13 12 12 12 12 12 11 11 10 10 10 10 9 9 9 9 9 9 9
5 5 5 5 5 5 5 5 5 5 5 5 5 5 6 6 7 6 5 5 5 5 6 6 7 7 7 8 8 8 9 9 9 11 12 12 12 12 12 11 11 10 10 10 10 9 9 9 9 9 9 9
5 5 5 5 4 4 5 5 5 5 5 5 5 5 5 5 6 6 5 4 4 5 5 6 6 6 6 7 7 7 8 8 8 9 10 12 12 12 12 11 11 10 10 10 9 9 9 9 9 9 9 9
4 4 4 4 4 4 4 4 4 4 4 4 4 4 5 5 5 5 5 5 4 4 4 5 5 6 6 6 6 6 7 8 8 8 8 9 11 12 12 11 11 10 10 9 9 9 9 9 9 9 9 8
4 4 4 4 3 4 4 4 4 4 4 4 4 4 4 4 4 5 5 4 4 4 4 4 4 5 5 5 5 5 6 6 7 7 8 8 8 9 11 12 11 10 10 10 9 9 9 8 8 8 8 8
3 3 3 3 3 3 3 3 4 4 4 4 4 4 4 4 4 4 4 4 4 4 4 4 4 4 4 5 5 5 5 5 6 6 7 8 8 8 8 10 11 10 9 9 9 9 8 8 8 8 8 8
3 3 3 3 3 3 3 3 3 3 3 4 4 4 4 4 4 4 4 4 4 4 4 3 3 4 4 4 4 5 5 5 5 5 6 7 7 8 7 7 9 10 10 9 9 8 8 8 8 8 8 8
2 3 2 2 2 2 2 3 3 3 3 3 3 3 3 3 4 3 3 3 3 3 3 3 3 3 3 3 4 4 4 4 4 4 5 6 6 7 7 6 7 8 9 9 8 8 8 8 8 8 8 8
2 2 2 2 2 2 2 2 2 2 2 2 2 2 3 3 3 3 3 3 3 3 3 3 3 3 3 3 3 3 4 4 4 4 4 4 5 6 6 7 6 6 7 8 9 8 8 8 8 7 8 8
2 2 2 2 2 2 2 2 2 1 1 2 2 2 2 2 3 3 3 3 3 3 3 3 3 3 3 3 3 3 3 3 3 3 3 3 4 4 5 6 6 6 5 6 8 8 8 8 7 7 8 8
2 2 1 1 1 1 1 1 1 1 1 1 1 1 2 2 2 2 3 3 3 3 3 3 3 2 2 2 2 2 2 3 3 3 3 3 3 4 4 5 5 6 6 5 5 6 7 7 7 7 7 8
1 1 1 1 1 1 1 1 1 1 1 1 1 1 1 1 2 2 2 2 2 3 3 3 3 2 2 2 2 2 2 2 2 3 2 2 2 3 3 4 4 5 6 6 5 4 5 6 6 7 7 7
1 1 1 0 0 0 0 0 0 0 1 1 1 1 1 1 1 1 2 2 2 2 2 2 2 2 2 2 2 2 2 2 2 2 2 2 2 2 2 3 3 4 5 5 4 4 4 4 4 4 5 5
0 0 -0 -0 -1 -0 -0 -0 -0 -0 -0 0 0 0 0 1 1 1 1 1 2 2 2 2 2 2 2 2 2 2 2 2 2 2 2 2 2 1 1 2 3 3 4 3 3 3 3 2 3 3 3 4
0 -0 -0 -1 -1 -1 -1 -1 -1 -1 -1 -1 -1 -0 -0 0 0 1 1 1 1 1 1 1 2 2 2 2 2 2 2 2 2 2 2 2 2 1 1 1 2 3 3 3 3 3 2 1 1 1 2 2
-0 -0 -0 -1 -1 -1 -1 -1 -1 -1 -1 -1 -1 -1 -1 -0 -0 -0 0 0 0 0 0 1 1 1 1 1 1 2 2 2 2 2 2 2 2 1 1 1 1 2 2 3 3 3 3 3 2 2 1 1
-0 -0 -1 -1 -1 -1 -1 -1 -1 -2 -2 -2 -1 -1 -1 -1 -1 -1 -1 -0 -0 -0 -0 0 0 1 1 1 1 1 1 2 1 1 2 2 1 1 1 0 1 1 2 2 3 3 3 2 3 4 3 1
-1 -1 -1 -1 -1 -1 -2 -2 -2 -2 -2 -2 -2 -2 -1 -1 -1 -1 -1 -1 -1 -1 -0 -0 0 0 0 0 0 1 1 1 1 1 1 1 1 1 1 0 0 1 1 1 2 3 3 2 3 4 4 3
-3 -3 -3 -3 -2 -2 -2 -2 -3 -2 -3 -2 -2 -2 -2 -2 -2 -2 -2 -1 -1 -1 -1 -0 -0 -0 -0 -0 -0 -0 0 0 1 1 1 1 1 1 1 1 0 0 0 1 1 2 3 3 3 3 3 4
-4 -4 -4 -4 -4 -4 -3 -3 -3 -3 -3 -3 -2 -2 -2 -2 -2 -2 -2 -2 -2 -2 -1 -1 -1 -1 -1 -1 -1 -1 -1 -0 -0 0 1 1 1 1 1 1 -0 -0 0 0 0 1 1 2 2 2 2 3

ECMWFFLT2_925_temp_024.txt.gz
Temp
8 8 8 7 7 8 8 8 8 8 9 9 10 10 11 11 11 11 11 12 12 12 12 12 12 12 13 13 14 14 14 14 14 14 13 13 12 12 12 12 11 11 10 10 11 12 11 11 11 10 10 10
7 7 7 7 7 7 8 8 8 8 8 9 10 10 10 11 11 11 11 11 11 11 11 11 11 12 12 12 13 13 14 14 13 14 13 13 12 12 12 12 11 11 10 10 11 12 11 11 11 11 10 9
7 7 7 7 7 7 7 7 7 8 8 8 9 10 10 10 11 11 11 11 11 11 11 11 11 11 12 12 12 13 13 13 13 13 13 13 13 12 12 12 11 11 10 10 11 12 11 11 11 11 10 10
6 6 7 7 7 7 7 7 7 7 8 8 9 9 10 10 10 10 10 10 10 10 11 11 11 11 11 11 11 12 13 13 13 13 13 13 13 12 12 12 11 11 10 10 10 11 11 11 11 11 11 10
5 6 6 6 6 6 6 6 6 7 7 8 8 9 9 10 10 10 10 10 10 10 10 10 11 11 11 11 11 11 12 12 13 13 13 13 13 12 12 12 11 11 10 9 10 11 11 11 11 11 11 10
5 5 5 5 6 6 6 6 6 6 6 7 7 8 8 9 9 9 10 10 10 10 10 10 10 10 11 11 11 11 11 11 12 12 13 13 13 12 12 12 12 11 11 9 10 11 11 11 11 11 11 11
5 5 5 5 5 5 5 6 5 5 5 6 6 6 7 8 8 9 9 9 9 9 10 10 10 10 10 10 10 10 10 10 11 11 12 13 13 12 12 12 12 11 11 10 9 10 11 11 11 11 11 11
5 5 5 5 5 5 5 5 5 5 5 5 5 6 6 7 7 8 9 9 9 9 10 10 10 10 10 10 10 10 10 10 10 11 11 12 13 12 12 12 12 11 11 10 9 10 10 10 11 11 11 11
5 5 5 4 4 5 5 5 5 5 5 5 5 5 5 5 6 7 7 8 9 9 9 10 10 10 10 10 9 9 9 10 10 10 10 11 12 12 13 12 12 12 11 10 9 9 10 10 10 11 11 11
4 4 4 4 4 4 4 5 5 5 5 4 4 5 5 5 5 6 6 7 8 9 9 9 10 10 10 10 9 9 9 9 9 10 10 10 10 11 12 12 12 11 11 11 9 9 10 10 10 10 10 10
4 4 4 4 4 4 4 4 4 5 4 4 4 4 4 4 5 5 5 6 6 7 8 9 9 9 10 10 9 9 9 8 8 9 9 10 10 10 11 12 12 11 11 11 10 9 10 10 10 10 10 10
3 3 3 3 3 4 4 4 4 4 4 4 4 4 4 4 4 4 4 5 5 5 6 7 8 9 9 10 9 9 8 8 8 8 8 9 9 9 9 10 11 11 11 11 10 10 9 10 10 10 10 10
3 3 3 3 3 3 3 3 4 4 4 4 4 4 4 4 4 4 4 4 4 4 4 5 6 7 8 9 9 9 9 8 8 8 8 8 8 9 9 9 10 11 11 11 10 10 10 10 10 10 10 9
3 3 3 3 3 3 3 3 3 3 4 4 4 4 4 3 3 4 4 4 4 4 4 4 4 5 6 7 8 9 9 8 7 7 7 7 7 8 8 8 8 9 10 10 10 10 10 10 10 10 10 10
2 2 2 2 2 2 2 2 3 3 3 3 3 3 3 3 3 3 3 3 3 3 4 4 4 4 4 5 6 7 7 8 7 6 7 6 7 7 7 7 8 8 8 9 10 10 9 9 9 10 10 10
2 2 2 2 2 2 2 2 2 2 2 3 3 3 3 3 3 3 3 3 3 3 3 3 3 3 3 4 4 5 5 6 6 6 6 6 6 6 6 6 7 8 7 8 9 10 9 9 9 9 9 10
2 2 2 2 2 2 2 2 2 2 2 2 2 2 2 2 2 2 3 3 3 3 3 3 3 3 3 3 3 4 4 4 5 6 6 6 6 6 6 6 6 7 7 7 7 8 9 9 9 9 9 9
1 2 2 2 2 2 2 2 2 1 2 1 1 2 2 2 2 2 2 2 2 2 3 3 3 3 3 3 3 3 3 3 4 4 5 5 5 5 5 5 5 5 7 7 7 7 8 8 9 9 9 9
1 1 1 1 1 1 1 1 1 1 1 1 1 1 1 1 1 2 2 2 2 2 2 2 2 3 2 3 3 3 3 3 3 3 4 4 5 5 5 5 5 4 5 6 7 7 6 7 8 8 8 9
1 1 1 1 1 1 1 1 1 1 1 1 1 1 1 1 1 1 1 1 2 2 2 2 2 2 2 2 2 2 2 2 3 3 3 3 4 4 4 4 4 4 4 5 6 7 6 6 6 7 8 8
-0 0 0 0 0 0 0 0 0 0 0 0 0 0 0 1 1 1 1 1 1 1 2 2 2 2 2 2 2 2 2 2 2 2 2 2 3 3 3 4 4 3 3 4 5 6 6 6 5 5 7 8
-1 -1 -1 -0 -0 0 0 0 0 -0 -0 -0 -0 0 0 0 0 0 1 1 1 1 1 2 2 2 2 2 2 2 2 2 2 2 2 2 2 2 3 3 3 3 3 3 4 4 5 6 6 5 6 6
-2 -2 -2 -1 -1 -0 -0 -0 -0 -0 -0 -0 -0 -0 -0 -0 -0 -0 0 0 1 1 1 1 1 2 2 2 1 1 2 2 2 2 2 2 2 2 2 3 3 3 3 3 3 3 4 4 5 5 5 5
-3 -3 -3 -3 -2 -1 -1 -1 -1 -1 -1 -1 -1 -1 -1 -1 -1 -1 -0 -0 0 0 0 1 1 1 1 1 1 1 1 1 1 2 2 2 2 2 2 2 2 3 3 2 3 3 3 3 3 4 4 4
-4 -4 -4 -4 -3 -3 -2 -2 -2 -2 -1 -1 -1 -1 -1 -1 -1 -1 -1 -1 -1 -1 -0 0 0 0 1 1 1 1 1 1 1 1 2 2 2 2 1 2 2 2 2 2 2 2 3 3 2 2 2 2
-4 -4 -4 -4 -4 -4 -4 -4 -3 -3 -2 -2 -2 -2 -2 -2 -2 -2 -1 -1 -1 -1 -1 -1 -1 -0 0 0 0 0 1 1 0 1 1 1 1 1 1 1 2 2 2 1 2 2 2 2 1 1 1 1
-5 -5 -5 -5 -5 -4 -4 -4 -4 -4 -3 -2 -2 -2 -2 -2 -2 -2 -2 -2 -1 -1 -1 -1 -1 -1 -0 -0 -0 -0 0 0 -0 -0 0 1 1 1 1 1 1 2 2 1 2 2 2 2 2 1 0 0
-5 -5 -5 -5 -5 -5 -5 -5 -4 -4 -4 -3 -3 -3 -3 -3 -3 -2 -2 -2 -2 -2 -1 -1 -1 -1 -1 -1 -1 -1 -1 -1 -1 -1 -0 -0 1 1 1 0 1 1 1 1 1 1 2 3 2 3 2 0
-6 -6 -6 -6 -6 -5 -5 -5 -5 -5 -4 -4 -4 -3 -3 -3 -3 -3 -2 -2 -2 -2 -2 -2 -2 -1 -2 -2 -2 -2 -2 -1 -1 -1 -1 -1 -0 0 0 0 0 1 1 1 1 1 2 2 2 3 4 2
-6 -6 -6 -7 -6 -6 -6 -6 -5 -5 -5 -5 -4 -4 -4 -4 -4 -3 -3 -2 -2 -2 -2 -2 -2 -2 -2 -3 -3 -3 -2 -2 -2 -2 -1 -1 -1 -1 -0 0 -0 -0 0 1 1 1 1 1 1 1 2 3
-6 -7 -7 -7 -7 -7 -7 -6 -6 -6 -5 -5 -5 -5 -4 -4 -4 -4 -3 -3 -3 -3 -3 -3 -2 -2 -3 -3 -3 -3 -3 -3 -3 -2 -2 -2 -2 -2 -1 -1 -1 -1 -0 -0 0 1 1 1 0 -0 -0 2

ECMWFFLT2_925_temp_027.txt.gz
Temp
6 6 6 6 6 6 6 6 6 6 7 8 8 8 9 9 10 10 11 11 11 11 11 11 12 12 12 12 13 12 12 13 13 14 14 13 13 13 13 12 12 12 11 10 11 12 12 12 12 12 12 11
6 6 6 6 6 6 6 6 6 6 6 7 8 8 8 8 8 9 10 10 10 11 11 11 11 11 11 12 12 12 12 13 13 13 13 13 13 13 13 13 12 12 11 10 11 12 12 12 12 12 11 11
5 5 5 6 6 6 6 6 6 6 6 7 7 8 8 8 8 8 9 9 10 10 10 10 11 11 11 11 11 11 12 12 12 12 12 13 13 13 13 13 12 11 11 10 11 12 12 12 12 12 12 11
5 5 5 5 6 6 6 6 6 6 6 7 7 8 8 8 8 8 8 9 9 10 10 10 10 10 10 11 11 11 11 12 12 12 12 12 12 12 12 12 12 11 11 10 10 11 11 12 12 12 12 11
4 5 5 5 5 5 5 5 6 6 6 6 7 7 7 7 7 7 8 8 8 9 10 10 10 10 10 10 10 10 11 11 11 11 11 11 12 12 11 12 12 12 11 10 10 11 11 11 12 12 12 12
4 4 5 5 5 5 5 5 5 5 6 6 6 6 7 7 7 6 7 7 8 8 9 9 10 10 10 10 10 10 10 10 11 11 11 11 11 11 11 11 12 12 11 10 10 10 10 11 12 12 12 12
4 4 4 4 4 4 4 4 5 5 5 5 5 5 5 6 6 6 6 6 7 7 8 8 9 10 10 10 10 10 10 10 10 10 11 11 11 11 11 11 11 12 11 10 10 10 10 10 11 11 11 12
3 3 3 4 4 4 4 4 4 4 4 4 4 5 5 5 5 5 5 6 6 6 7 7 8 9 10 10 10 10 11 11 11 10 10 11 11 11 11 10 11 12 12 11 11 11 11 11 10 11 11 12
3 3 3 3 3 3 3 4 4 4 4 4 4 4 4 4 4 4 5 5 6 6 6 7 7 8 9 9 9 10 10 10 11 11 10 10 10 10 10 10 10 11 11 11 11 11 11 10 10 10 11 11
2 2 3 3 3 3 3 3 3 3 3 4 4 4 4 4 4 4 4 4 5 5 5 5 6 7 8 8 8 9 9 10 10 10 11 11 10 10 10 10 10 10 10 11 11 11 10 10 10 10 11 11
2 2 2 2 2 2 2 3 3 3 3 3 3 3 3 4 4 3 3 3 4 4 4 4 5 6 7 7 8 8 9 9 9 10 10 10 10 10 10 9 9 9 10 10 11 11 10 10 10 10 10 11
2 2 2 2 2 2 2 2 2 2 3 3 3 3 3 3 3 3 3 3 3 3 3 4 4 5 5 6 7 7 8 8 8 9 9 10 10 10 10 10 9 9 9 9 10 11 10 10 10 10 10 11
2 2 2 2 2 2 2 2 2 2 2 2 2 2 3 3 3 3 3 3 3 3 3 3 3 4 4 5 6 6 7 8 8 8 8 9 9 9 10 10 9 9 8 9 9 10 10 10 10 10 10 10
2 2 2 2 2 2 2 2 2 2 2 2 2 2 2 2 2 2 2 2 3 3 3 3 3 3 3 4 4 5 6 7 7 7 7 7 7 8 8 9 9 9 8 8 8 9 9 9 10 10 10 10
1 1 1 2 1 1 1 1 1 1 1 2 2 2 2 2 2 2 2 2 2 2 2 2 2 3 3 3 3 4 4 5 6 6 6 6 6 6 7 8 8 9 8 8 8 8 9 9 9 10 10 10
0 1 1 1 1 1 1 1 1 1 1 1 1 1 1 2 1 2 1 2 2 2 2 2 2 2 2 3 3 3 3 4 4 5 5 5 5 5 5 6 7 8 8 8 8 8 8 8 8 9 10 10
-0 -0 0 0 0 1 1 1 1 1 1 1 1 1 1 1 1 1 1 1 1 1 1 2 2 2 2 2 2 2 2 3 3 4 4 5 5 5 5 5 6 6 7 7 7 7 8 8 8 8 9 9
-1 -1 -1 -0 -0 0 0 0 0 0 1 0 0 0 0 1 1 1 1 1 1 1 1 1 1 2 2 2 2 2 2 2 2 3 3 4 4 4 4 4 5 5 6 6 7 7 7 7 7 7 8 9
-2 -2 -2 -1 -1 -1 -0 -0 0 0 0 -0 -0 -0 -0 -0 0 0 1 1 1 1 1 1 1 1 2 2 2 2 2 2 2 2 2 3 3 4 4 4 4 4 5 5 6 6 6 7 7 7 7 8
-2 -2 -2 -2 -2 -2 -1 -1 -1 -1 -0 -1 -1 -1 -1 -0 -0 -0 0 0 0 0 0 1 1 1 1 2 2 2 2 1 2 2 2 2 2 3 3 3 3 3 4 4 5 5 5 5 6 6 6 7
-3 -3 -3 -3 -2 -2 -2 -2 -2 -2 -2 -2 -2 -1 -1 -1 -1 -1 -0 -0 -0 -0 -0 -0 0 0 1 1 1 2 2 1 1 1 2 2 2 2 2 3 3 3 3 3 4 4 4 4 5 6 6 6
-4 -4 -4 -3 -3 -3 -3 -3 -3 -3 -3 -3 -2 -2 -2 -1 -1 -1 -1 -1 -1 -1 -1 -1 -1 -0 0 1 1 1 1 1 1 1 1 1 2 2 2 2 2 2 2 3 3 3 4 4 4 5 5 5
-4 -4 -4 -4 -5 -5 -4 -4 -4 -4 -4 -4 -3 -3 -2 -2 -2 -2 -2 -1 -1 -1 -1 -1 -1 -1 -0 -0 0 1 1 1 1 1 1 1 1 2 2 2 2 2 2 2 2 3 3 4 4 4 4 4
-5 -5 -5 -5 -5 -5 -5 -5 -5 -5 -5 -4 -4 -4 -3 -3 -3 -2 -2 -2 -2 -2 -2 -2 -2 -1 -1 -1 -1 -0 0 0 1 1 1 1 1 1 1 1 2 2 2 2 2 2 3 3 3 3 3 3
-5 -5 -5 -5 -6 -6 -6 -6 -6 -5 -5 -5 -5 -4 -4 -3 -3 -3 -3 -3 -2 -2 -2 -2 -2 -2 -1 -1 -1 -1 -0 -0 0 0 0 1 0 0 1 1 1 1 1 1 1 2 3 3 3 3 3 3
-5 -5 -5 -6 -6 -6 -6 -6 -6 -6 -6 -5 -5 -5 -5 -4 -3 -3 -3 -3 -3 -3 -3 -2 -2 -2 -2 -1 -1 -1 -1 -1 -1 -0 -0 -0 -0 0 0 0 1 1 1 0 1 2 2 3 3 2 2 2
-5 -5 -5 -6 -6 -6 -7 -7 -7 -7 -6 -6 -6 -5 -5 -5 -4 -4 -4 -4 -3 -3 -3 -3 -3 -2 -2 -2 -2 -1 -1 -1 -1 -1 -1 -0 -1 -1 -0 -0 0 1 1 1 1 1 1 2 3 2 1 1
-5 -5 -6 -6 -6 -6 -7 -7 -7 -7 -7 -7 -6 -6 -6 -5 -5 -5 -5 -5 -4 -4 -3 -3 -3 -3 -2 -2 -2 -2 -2 -2 -2 -1 -1 -1 -1 -1 -2 -1 -1 0 1 1 1 1 1 2 3 3 3 1
-6 -6 -6 -6 -7 -7 -7 -7 -7 -7 -7 -7 -7 -6 -6 -6 -6 -6 -5 -5 -5 -4 -4 -3 -3 -3 -3 -3 -2 -2 -3 -3 -2 -2 -2 -2 -2 -2 -2 -2 -1 -1 0 1 1 1 1 2 2 3 3 2
-6 -6 -6 -7 -7 -7 -7 -7 -7 -7 -7 -7 -7 -7 -7 -7 -7 -6 -6 -6 -6 -5 -4 -4 -4 -3 -3 -3 -3 -3 -3 -3 -3 -3 -2 -2 -2 -3 -3 -3 -3 -2 -1 -0 0 0 1 1 1 1 1 1
-6 -7 -7 -7 -8 -8 -8 -8 -8 -7 -7 -7 -7 -7 -7 -7 -7 -7 -7 -6 -6 -6 -5 -4 -4 -4 -4 -3 -3 -3 -3 -3 -3 -3 -3 -3 -3 -3 -3 -3 -3 -3 -2 -1 -1 -0 0 0 1 0 -0 0

ECMWFFLT2_925_temp_030.txt.gz
Temp
6 6 6 6 6 6 7 6 6 6 6 6 7 8 8 8 8 9 10 10 10 11 11 11 11 11 11 11 12 12 12 12 12 12 12 13 13 13 13 12 12 13 12 11 11 11 12 13 12 12 12 12
5 5 5 5 5 6 6 6 6 6 6 6 6 6 7 7 7 8 8 9 9 10 11 10 10 10 10 10 11 11 11 11 12 12 12 12 12 12 12 12 12 12 12 11 11 11 12 12 12 12 12 12
5 5 5 5 5 5 6 6 7 7 6 7 6 6 6 6 6 7 7 8 8 9 10 10 10 10 10 10 10 10 11 11 11 11 11 12 12 12 12 12 12 12 12 11 12 11 11 12 12 13 12 12
5 5 5 5 5 5 5 5 6 7 6 7 7 6 6 6 6 6 7 7 8 8 9 9 10 10 10 10 10 10 10 10 10 10 11 11 11 11 12 12 12 12 12 12 11 11 11 11 12 12 12 11
4 4 5 5 5 5 5 5 5 6 6 6 6 6 6 6 6 5 6 6 7 8 8 8 9 9 9 9 10 10 9 9 10 10 10 10 11 11 11 12 11 12 12 12 11 11 11 11 12 12 11 11
3 3 4 4 4 4 4 5 5 5 5 5 5 5 5 5 5 5 5 5 6 7 7 8 8 8 9 9 9 9 9 9 9 10 10 10 10 10 11 11 11 11 11 11 10 11 11 11 11 12 12 11
3 3 3 3 3 3 4 4 4 4 5 5 5 5 5 5 5 5 5 4 5 6 7 7 7 8 8 9 9 9 9 9 10 10 10 10 10 10 11 11 11 11 11 11 11 11 11 11 11 12 12 12
3 3 3 3 3 3 3 3 3 3 4 4 4 4 4 5 5 5 5 5 5 6 7 7 7 7 7 8 8 9 9 9 9 10 10 10 10 10 10 11 11 11 11 11 11 11 11 11 11 11 12 12
3 3 3 3 3 3 3 3 3 3 3 3 3 4 4 4 4 4 5 5 5 5 6 6 7 7 7 7 7 8 8 8 9 9 9 10 10 10 10 10 10 11 11 10 10 11 11 11 11 11 11 12
2 2 3 3 3 3 3 3 3 3 3 3 3 3 3 3 3 4 4 4 5 5 5 5 6 6 5 6 6 7 7 8 8 8 9 9 10 10 10 10 10 10 11 10 10 10 11 11 11 11 11 11
2 2 2 2 2 2 2 2 3 3 2 2 2 2 2 2 3 3 3 3 4 4 5 5 5 5 5 5 5 6 6 7 7 7 8 8 9 9 10 9 9 10 10 10 10 9 10 11 11 11 11 11
2 2 2 2 2 2 2 2 2 2 2 2 2 2 2 2 2 3 2 2 3 3 4 4 5 5 5 5 5 5 5 6 6 7 7 7 8 8 9 9 9 9 10 10 10 9 9 10 10 11 11 11
1 1 1 1 1 1 1 2 2 2 2 2 2 2 2 2 2 2 2 2 2 2 3 3 4 4 4 5 5 5 4 5 5 6 6 6 6 7 7 8 9 9 9 9 10 10 10 10 10 10 11 11
1 0 1 0 1 1 1 1 1 1 2 2 2 2 1 1 2 2 2 2 2 2 2 2 3 3 3 4 4 4 4 4 4 5 5 5 5 6 6 6 7 8 8 8 9 9 10 10 10 10 10 10
-0 -0 -0 -0 -0 0 0 0 1 1 2 2 2 1 1 1 1 1 2 2 2 2 2 2 3 2 3 3 3 3 3 4 4 4 5 5 4 5 5 5 6 7 7 8 8 9 9 10 10 10 10 10
-1 -1 -1 -1 -0 -0 -1 -0 0 1 1 1 1 1 1 1 1 1 1 1 1 1 2 2 2 2 2 3 3 3 2 3 3 3 4 4 4 4 4 5 5 6 6 7 7 8 8 9 9 9 10 9
-1 -2 -1 -1 -1 -1 -1 -1 -0 -0 1 1 1 1 0 0 0 0 1 1 1 1 1 2 2 2 2 3 3 3 2 2 2 2 3 3 4 4 4 4 5 5 5 6 6 7 7 7 8 9 9 9
-2 -2 -2 -2 -2 -2 -2 -1 -1 -1 -0 -0 -0 -0 -0 -0 -0 -0 0 0 0 1 1 1 1 2 2 2 2 2 2 2 2 2 2 3 3 4 4 4 4 4 4 5 5 6 6 6 6 7 8 9
-3 -3 -3 -3 -2 -2 -2 -2 -1 -1 -1 -1 -1 -1 -1 -1 -1 -1 -0 -0 -0 -0 0 1 1 1 1 2 1 2 2 2 2 2 3 3 3 3 3 3 4 4 4 4 4 5 5 5 5 5 6 7
-3 -3 -3 -3 -3 -3 -3 -3 -2 -2 -2 -2 -2 -1 -1 -1 -1 -1 -1 -1 -1 -1 -0 0 0 1 1 1 1 1 1 1 2 2 2 3 3 3 3 3 3 3 3 3 4 4 4 5 5 5 5 6
-3 -3 -3 -3 -3 -3 -3 -3 -3 -3 -3 -2 -2 -2 -2 -2 -2 -2 -1 -1 -1 -1 -1 -0 -0 0 0 0 0 1 1 1 2 2 2 2 2 3 3 3 3 3 3 3 3 3 4 4 5 5 4 5
-3 -3 -3 -3 -3 -3 -4 -4 -4 -4 -3 -3 -3 -3 -3 -3 -3 -2 -2 -2 -1 -1 -1 -1 -1 -0 -0 -0 -0 0 0 1 1 1 2 2 2 2 2 3 3 2 2 3 2 2 3 3 4 4 5 4
-4 -4 -3 -3 -3 -3 -3 -4 -4 -4 -4 -4 -4 -3 -3 -3 -3 -3 -2 -2 -2 -2 -1 -1 -1 -1 -1 -1 -0 -0 -0 0 1 1 1 1 2 2 2 2 2 2 2 2 2 2 2 3 3 3 4 4
-4 -3 -3 -3 -3 -3 -3 -4 -4 -4 -4 -4 -4 -4 -4 -4 -4 -3 -3 -3 -2 -2 -2 -2 -1 -1 -1 -1 -1 -1 -0 0 0 1 1 1 1 1 2 2 2 2 2 2 2 2 2 2 3 3 3 4
-3 -3 -3 -3 -4 -4 -4 -4 -4 -4 -4 -5 -5 -5 -5 -5 -4 -4 -4 -3 -3 -3 -2 -2 -2 -2 -1 -1 -1 -1 -1 -1 -0 -0 -0 0 1 1 1 2 2 2 2 2 3 3 3 3 3 3 4 4
-3 -3 -4 -4 -4 -4 -4 -4 -4 -4 -5 -5 -5 -5 -5 -5 -5 -5 -4 -4 -4 -3 -3 -3 -2 -2 -2 -1 -1 -1 -1 -1 -1 -1 -1 -0 0 1 1 2 2 2 2 3 3 4 4 4 4 4 3 3
-4 -4 -4 -4 -4 -4 -4 -4 -4 -5 -5 -5 -5 -5 -5 -5 -5 -5 -5 -5 -4 -4 -4 -4 -3 -3 -2 -2 -2 -1 -1 -1 -1 -1 -1 -1 -0 1 1 2 2 2 2 2 3 3 3 4 5 5 4 3
-4 -4 -4 -5 -5 -5 -5 -5 -5 -5 -5 -5 -5 -5 -6 -6 -6 -5 -5 -5 -5 -5 -5 -4 -4 -3 -3 -2 -2 -2 -2 -1 -1 -1 -1 -1 -1 -0 1 1 1 1 2 2 3 3 3 4 4 4 5 5
-4 -4 -5 -5 -5 -5 -5 -5 -5 -5 -5 -5 -5 -6 -6 -6 -6 -6 -6 -6 -6 -6 -5 -5 -4 -4 -3 -3 -2 -2 -2 -2 -1 -1 -1 -1 -1 -1 -0 1 1 1 1 1 2 2 3 4 3 4 5 6
-4 -5 -5 -5 -5 -6 -6 -5 -5 -5 -5 -6 -6 -6 -6 -6 -6 -6 -6 -6 -6 -6 -6 -5 -5 -4 -4 -3 -3 -2 -2 -2 -2 -2 -2 -2 -2 -1 -1 -1 -0 0 1 1 1 2 2 3 3 4 4 3
-5 -5 -6 -6 -6 -6 -6 -6 -6 -6 -6 -7 -7 -7 -7 -7 -7 -7 -7 -6 -6 -6 -6 -6 -5 -5 -4 -4 -3 -3 -2 -2 -2 -2 -2 -2 -2 -2 -2 -1 -1 -1 -0 0 1 1 1 2 2 2 2 2

ECMWFFLT2_925_temp_033.txt.gz
Temp
6 6 6 6 6 6 6 6 7 7 8 8 8 8 8 8 8 8 8 7 7 7 7 8 8 9 9 10 10 11 12 12 12 12 12 12 12 13 13 13 13 12 12 12 12 12 13 13 13 13 13 13
5 5 5 6 6 6 6 6 6 7 7 8 8 8 8 7 7 7 7 7 7 6 6 7 7 7 8 8 9 10 10 11 11 11 11 12 12 13 13 12 12 12 12 12 12 13 13 13 13 13 13 13
5 4 4 5 5 5 6 5 6 6 7 7 8 8 8 7 7 7 7 7 7 7 6 6 6 6 7 7 8 8 10 10 10 10 11 11 12 12 12 12 12 12 12 12 12 13 12 12 13 13 13 13
5 4 4 4 4 4 5 5 5 5 6 6 7 7 8 8 8 8 7 7 7 7 6 6 6 6 6 6 7 7 8 9 10 10 11 11 11 11 12 12 12 12 12 12 11 12 12 12 12 12 12 12
5 5 4 4 4 4 4 4 4 4 5 5 6 6 7 7 7 7 7 7 7 7 7 7 6 6 6 6 6 7 7 8 9 10 10 10 11 11 11 12 12 12 12 12 11 11 12 12 12 12 12 12
5 5 5 4 4 4 4 4 4 4 4 4 4 5 5 6 6 6 6 7 7 7 7 7 7 7 6 6 6 7 8 8 8 10 10 10 11 11 11 11 11 11 12 12 11 11 12 11 12 12 12 12
4 4 5 5 4 4 4 4 4 4 3 3 3 4 4 4 5 5 5 6 6 7 7 7 7 6 6 6 6 7 8 8 7 8 9 9 10 10 11 11 11 11 11 11 11 11 12 11 11 12 11 12
4 4 4 4 4 4 4 4 4 4 4 3 3 3 3 3 3 4 4 5 6 6 7 7 7 6 6 6 6 6 7 7 7 7 8 9 9 9 10 10 11 11 11 11 11 11 11 11 11 12 12 12
4 3 4 4 4 4 4 4 4 4 4 3 3 3 3 3 3 3 3 3 4 5 6 6 7 6 6 6 5 6 6 7 7 7 7 8 8 9 9 10 10 10 10 11 11 10 11 11 11 11 12 12
3 3 3 3 3 3 4 3 4 4 4 4 3 3 3 3 3 3 3 3 3 3 4 5 5 6 6 5 5 5 6 6 6 7 7 7 7 8 8 9 9 9 10 10 10 10 11 10 11 11 12 12
3 3 3 2 2 3 3 3 3 3 3 4 4 4 3 3 3 3 4 3 3 3 3 3 3 4 4 5 5 5 5 5 5 6 7 7 7 7 8 8 8 9 9 9 10 10 10 10 10 11 11 11
2 2 2 2 2 2 2 2 3 3 3 4 4 4 3 2 3 3 3 3 3 3 3 3 3 3 3 4 4 4 5 5 5 5 6 6 7 7 7 7 8 8 9 9 9 9 9 10 10 11 11 11
1 1 1 1 1 2 2 2 2 2 3 3 3 3 3 2 2 3 3 3 3 3 3 3 3 3 3 3 3 3 4 4 5 5 5 5 6 6 6 7 7 7 8 8 9 9 9 9 10 10 11 11
1 1 1 1 1 1 1 1 1 2 2 3 3 3 3 2 2 2 2 3 3 3 3 3 3 3 3 3 3 3 3 3 4 4 5 5 5 5 6 6 6 6 7 8 8 8 9 9 9 9 10 10
-0 -0 -0 -0 -0 0 0 0 1 1 2 2 2 3 2 2 2 2 2 2 2 2 2 3 3 3 3 3 4 4 3 3 3 3 4 4 4 5 5 5 6 6 6 7 7 8 8 8 8 8 9 10
-1 -1 -1 -1 -1 -1 -1 -1 0 1 1 1 2 2 1 1 1 1 1 2 2 2 2 2 3 3 3 3 4 4 4 3 3 3 3 3 4 4 4 5 5 5 6 6 7 7 7 8 8 8 8 9
-2 -2 -2 -2 -2 -1 -2 -1 -1 -0 1 1 1 1 1 1 1 1 1 1 1 1 1 2 2 2 3 3 3 3 3 3 3 3 3 3 3 4 4 4 4 5 5 6 6 6 6 7 7 8 8 8
-2 -2 -2 -2 -2 -2 -2 -2 -2 -1 -1 -0 -0 0 0 0 0 0 0 0 0 1 1 1 1 2 2 3 3 3 3 3 3 3 3 3 3 3 3 4 4 4 4 5 5 5 5 6 6 6 7 7
-2 -2 -2 -2 -2 -2 -2 -3 -3 -2 -2 -2 -1 -1 -1 -0 -0 -0 -0 -0 -0 0 0 1 1 1 2 2 2 2 2 3 3 3 3 3 3 3 3 3 3 4 4 4 4 5 5 5 5 6 6 7
-2 -2 -2 -2 -2 -2 -2 -3 -3 -3 -3 -2 -2 -2 -1 -1 -1 -1 -1 -1 -1 -0 -0 0 0 1 1 1 1 2 2 2 3 3 3 4 4 3 3 3 3 3 4 4 4 4 4 4 5 5 5 6
-2 -2 -2 -2 -2 -2 -2 -2 -2 -3 -3 -3 -3 -2 -2 -2 -2 -2 -2 -2 -2 -1 -1 -0 0 0 0 1 1 1 1 2 2 3 3 4 4 4 4 4 3 3 3 3 3 4 4 4 4 4 5 5
-2 -2 -2 -2 -2 -2 -2 -2 -2 -2 -3 -3 -3 -3 -3 -3 -3 -3 -3 -2 -2 -2 -1 -1 -0 -0 -0 0 0 1 1 1 2 2 3 3 3 3 4 4 4 4 4 3 3 3 3 4 4 4 5 5
-2 -2 -2 -2 -2 -2 -2 -2 -2 -2 -3 -3 -3 -3 -3 -3 -4 -3 -3 -3 -3 -2 -2 -2 -1 -1 -0 -0 0 0 0 1 1 2 2 2 3 3 3 3 4 4 4 4 3 3 3 3 3 4 4 4
-1 -1 -1 -2 -2 -2 -2 -2 -2 -2 -3 -3 -3 -3 -3 -4 -4 -4 -4 -3 -3 -3 -3 -2 -2 -1 -1 -1 -0 -0 -0 0 1 1 2 2 2 2 3 3 3 3 3 4 4 4 3 3 3 4 4 4
-1 -1 -1 -2 -2 -2 -2 -2 -2 -3 -3 -3 -3 -3 -4 -4 -4 -4 -4 -4 -4 -3 -3 -3 -2 -2 -2 -2 -1 -1 -0 0 0 1 1 1 1 2 2 2 3 3 3 3 4 4 4 4 4 4 4 4
-1 -2 -2 -2 -2 -2 -3 -3 -3 -3 -3 -3 -3 -3 -4 -4 -4 -4 -4 -4 -4 -4 -4 -4 -3 -3 -3 -3 -2 -1 -1 -0 0 0 0 0 1 1 2 2 2 3 3 3 4 4 4 5 5 5 4 4
-1 -2 -2 -2 -3 -3 -3 -3 -3 -3 -3 -3 -3 -3 -3 -3 -4 -4 -4 -4 -4 -4 -4 -4 -4 -4 -3 -3 -3 -2 -1 -1 -0 -0 -0 0 0 1 1 2 2 2 3 3 4 4 4 4 5 5 5 4
-2 -2 -3 -3 -3 -4 -4 -4 -4 -4 -4 -4 -4 -3 -3 -4 -4 -4 -5 -5 -5 -5 -5 -5 -5 -4 -4 -4 -3 -3 -2 -1 -1 -0 -0 -0 0 0 1 1 2 2 3 3 3 3 3 4 5 5 6 6
-3 -3 -4 -4 -4 -4 -4 -4 -4 -4 -4 -4 -4 -4 -4 -4 -4 -5 -5 -5 -5 -5 -5 -5 -5 -5 -4 -4 -4 -3 -3 -2 -1 -1 -0 -0 -0 0 0 1 1 2 2 3 3 3 3 4 4 4 6 7
-5 -5 -5 -5 -5 -5 -5 -5 -5 -5 -5 -5 -5 -5 -5 -5 -5 -5 -5 -6 -6 -6 -6 -6 -5 -5 -5 -5 -4 -4 -3 -2 -2 -1 -1 -0 -0 -0 0 0 1 1 2 2 2 3 3 3 4 4 4 4
-6 -6 -6 -6 -6 -6 -6 -6 -6 -6 -6 -6 -6 -6 -6 -6 -6 -6 -6 -6 -6 -6 -6 -6 -5 -5 -5 -5 -5 -4 -4 -3 -2 -2 -1 -1 -1 -0 -0 -0 0 0 1 1 2 2 2 2 3 3 3 2

ECMWFFLT2_925_temp_039.txt.gz
Temp
4 4 4 4 5 5 5 5 5 5 5 5 5 5 5 5 5 4 5 5 5 5 6 6 6 7 7 6 7 8 7 7 8 8 9 9 11 12 12 13 13 13 13 13 13 13 14 14 14 14 13 13
3 3 3 4 4 4 4 4 4 4 4 4 4 4 4 4 4 4 4 4 5 5 5 5 5 6 6 6 6 7 7 7 7 8 8 9 9 10 11 12 12 13 13 13 13 13 13 14 14 14 13 13
3 3 3 3 3 3 4 4 4 4 4 4 4 4 4 4 4 4 4 4 4 4 5 4 5 5 5 6 5 6 7 7 7 7 7 8 9 10 10 11 12 12 12 12 12 13 13 14 14 13 13 13
2 3 3 3 3 3 3 3 3 3 3 3 3 4 4 4 4 4 4 4 4 4 4 4 4 4 5 5 5 6 6 7 7 7 7 7 8 9 9 10 10 11 12 12 12 12 13 13 13 13 13 13
2 2 3 3 3 3 3 3 4 4 4 3 3 3 3 3 3 3 3 3 3 4 4 4 4 4 4 5 5 6 6 6 6 7 7 6 6 7 9 9 9 11 11 11 11 12 12 13 13 13 13 13
1 2 2 2 3 3 3 3 4 4 4 3 3 3 3 3 3 3 3 3 3 3 3 4 4 4 4 4 4 5 6 6 6 6 7 6 6 6 7 8 8 9 10 11 11 11 12 12 13 13 13 13
1 1 1 2 2 2 3 3 3 4 3 3 3 3 3 3 3 3 3 3 3 3 3 3 3 4 4 4 4 4 5 5 6 6 6 6 6 6 6 7 7 7 8 10 11 11 11 11 12 13 13 13
1 1 1 1 1 2 2 2 2 3 3 3 3 3 2 2 3 2 2 2 2 2 2 2 3 3 4 4 4 4 4 5 5 5 6 6 7 6 6 6 6 6 7 8 9 10 10 10 11 12 13 13
0 0 0 0 0 1 1 1 2 2 3 3 2 2 2 2 2 2 2 2 2 2 2 2 2 3 3 3 3 4 4 4 4 5 5 6 6 6 6 6 5 5 6 6 7 8 9 9 10 11 12 12
-0 -0 -0 -0 -0 0 0 0 1 2 2 2 2 2 1 2 2 2 2 1 1 1 1 1 2 2 2 2 3 3 3 4 4 4 4 4 5 6 6 6 5 5 5 5 6 7 8 8 9 10 11 12
-1 -1 -1 -1 -1 -1 -0 -1 -0 1 1 1 1 1 1 1 1 1 1 1 1 1 1 1 1 2 2 2 2 3 3 3 3 3 4 4 4 5 6 6 6 5 5 5 5 6 7 7 8 9 10 11
-1 -1 -1 -1 -1 -1 -1 -1 -1 -1 0 0 0 0 1 1 1 1 1 0 0 0 1 0 1 1 1 2 2 2 3 3 3 3 3 4 4 4 5 5 6 6 5 5 5 5 6 6 7 8 9 10
-1 -1 -1 -1 -1 -1 -1 -2 -2 -2 -1 -1 -1 -0 -0 0 0 -0 -0 -0 -0 -0 -0 0 0 0 0 1 2 2 2 2 2 3 3 3 3 3 4 5 5 5 6 5 5 5 5 6 6 7 8 9
-1 -1 -1 -1 -1 -1 -2 -2 -2 -2 -2 -1 -1 -1 -1 -1 -1 -1 -1 -1 -1 -1 -1 -0 -0 -0 -0 0 1 1 1 2 2 2 3 3 3 3 3 4 4 5 5 6 5 5 5 5 6 6 7 8
-1 -1 -1 -1 -1 -1 -2 -2 -2 -2 -2 -2 -2 -2 -2 -1 -1 -2 -1 -1 -1 -1 -1 -1 -1 -1 -1 -0 0 1 1 1 1 2 2 3 3 3 3 3 3 3 4 5 5 4 4 5 5 6 6 7
-1 -1 -1 -1 -1 -1 -2 -2 -2 -2 -2 -2 -2 -2 -2 -2 -2 -2 -2 -2 -2 -2 -2 -2 -2 -1 -1 -1 -0 -0 0 0 1 1 2 2 2 2 3 3 3 3 3 5 5 5 4 4 4 5 6 6
-1 -1 -1 -1 -1 -1 -2 -2 -2 -2 -2 -2 -2 -2 -3 -3 -3 -3 -2 -3 -3 -3 -3 -3 -2 -2 -2 -1 -1 -1 -0 -0 0 1 1 1 2 2 2 2 3 3 3 4 4 5 4 4 4 5 5 6
-1 -1 -1 -1 -1 -1 -2 -2 -2 -2 -2 -2 -2 -2 -3 -3 -3 -3 -3 -3 -3 -3 -3 -3 -3 -3 -2 -2 -2 -2 -1 -1 -0 -0 0 1 1 1 2 2 2 3 3 3 4 4 4 4 4 4 5 6
-2 -2 -2 -1 -1 -1 -2 -2 -2 -2 -2 -2 -2 -2 -3 -3 -3 -3 -3 -3 -4 -4 -4 -3 -3 -3 -3 -3 -3 -2 -2 -2 -1 -1 -0 -0 0 0 1 1 2 2 3 3 3 3 3 3 4 4 5 5
-3 -3 -3 -2 -2 -2 -2 -2 -2 -2 -2 -2 -2 -2 -3 -3 -3 -3 -3 -4 -4 -4 -4 -4 -4 -4 -3 -3 -3 -3 -3 -3 -2 -2 -1 -1 -0 -0 0 1 1 1 2 2 3 3 3 3 3 3 4 5
-3 -4 -4 -3 -3 -3 -2 -2 -2 -2 -2 -2 -2 -2 -3 -3 -3 -3 -3 -3 -3 -4 -4 -4 -4 -4 -4 -4 -4 -4 -4 -4 -3 -3 -2 -2 -1 -1 -1 -0 0 1 1 1 2 3 3 3 3 3 3 4
-4 -5 -5 -4 -4 -4 -3 -3 -2 -2 -2 -2 -3 -3 -3 -3 -3 -3 -4 -3 -3 -4 -4 -4 -4 -4 -4 -4 -4 -4 -4 -4 -4 -4 -3 -3 -2 -2 -2 -1 -1 0 0 1 1 2 2 3 3 2 2 3
-5 -6 -6 -5 -5 -5 -5 -4 -3 -3 -3 -3 -3 -3 -3 -3 -4 -4 -4 -4 -4 -4 -4 -4 -4 -4 -4 -4 -4 -4 -5 -5 -5 -4 -4 -4 -4 -3 -2 -2 -2 -1 -0 0 1 1 2 2 2 3 2 2
-6 -7 -7 -7 -6 -6 -6 -6 -5 -5 -4 -4 -4 -4 -4 -4 -4 -4 -4 -4 -4 -5 -5 -5 -5 -5 -5 -5 -5 -5 -5 -5 -5 -5 -5 -5 -5 -4 -3 -3 -2 -1 -1 -0 0 1 1 2 2 3 3 3
-7 -8 -8 -8 -8 -8 -7 -7 -6 -6 -6 -5 -5 -5 -5 -5 -5 -5 -5 -5 -5 -5 -6 -6 -6 -6 -6 -6 -6 -5 -5 -6 -6 -6 -6 -5 -5 -5 -4 -3 -3 -2 -1 -1 -0 -0 1 1 2 2 3 3
-8 -8 -8 -9 -9 -9 -8 -8 -7 -7 -7 -6 -6 -6 -5 -5 -5 -6 -6 -6 -6 -6 -6 -6 -6 -6 -6 -6 -6 -6 -6 -6 -6 -6 -6 -6 -5 -5 -4 -4 -3 -3 -2 -1 -1 -1 -0 0 1 2 3 3
-8 -9 -9 -9 -9 -9 -9 -9 -8 -7 -7 -7 -7 -6 -6 -6 -6 -6 -6 -6 -7 -7 -7 -7 -7 -7 -7 -6 -6 -6 -6 -6 -6 -6 -6 -6 -5 -5 -5 -4 -4 -3 -2 -2 -1 -1 -1 -1 1 1 2 3
-9 -9 -9 -9 -9 -9 -9 -9 -9 -8 -8 -7 -7 -7 -7 -7 -7 -7 -7 -7 -7 -7 -7 -7 -7 -7 -7 -7 -7 -7 -7 -7 -7 -6 -6 -6 -6 -6 -5 -5 -4 -4 -3 -2 -1 -1 -2 -1 0 1 1 2
-10 -10 -10 -10 -10 -10 -10 -10 -9 -9 -9 -9 -9 -9 -9 -9 -8 -8 -8 -8 -8 -8 -8 -8 -8 -8 -8 -8 -8 -7 -7 -7 -7 -7 -7 -7 -6 -6 -6 -6 -5 -5 -4 -3 -2 -1 -2 -1 -1 0 1 1
-10 -10 -10 -10 -11 -11 -10 -10 -10 -10 -10 -10 -10 -10 -10 -9 -9 -9 -9 -9 -9 -9 -9 -9 -9 -9 -9 -8 -8 -8 -8 -8 -8 -8 -8 -7 -7 -7 -7 -7 -6 -6 -5 -4 -2 -2 -1 -1 -1 -0 0 -0
-10 -11 -11 -11 -11 -11 -10 -10 -11 -11 -11 -11 -11 -11 -10 -10 -10 -10 -10 -10 -10 -10 -10 -10 -9 -9 -9 -9 -9 -9 -9 -8 -8 -8 -8 -8 -8 -8 -7 -7 -8 -7 -5 -4 -3 -2 -1 -1 -1 -1 -1 -1